Weather History for Monarch Pass, CO

Change the Weather History Date:

Friday, May 11, 2012

  Actual Average (KGUC) Record (KGUC)
Temperature  
Mean Temperature 32 °F -  
Max Temperature 39 °F 61 °F 69 °F (2001)
Min Temperature 26 °F 28 °F 19 °F (2003)
Degree Days  
Heating Degree Days 32    
Moisture  
Dew Point 27 °F    
Average Humidity 81    
Maximum Humidity 100    
Minimum Humidity 49    
Precipitation  
Precipitation 0.00 in - - ()
Sea Level Pressure  
Sea Level Pressure 30.42 in    
Wind  
Wind Speed 14 mph (ENE)    
Max Wind Speed 23 mph    
Max Gust Speed 26 mph    
Averages and records for this station are not official NWS values.
T = Trace of Precipitation, MM = Missing Value Source: NWS Daily Summary

Daily Weather History Graph

Daily Weather History Graph

Search for Another Location

Airport:

Trip Planner

Search our weather history database for the weather conditions in past years. The results will help you decide how hot, cold, wet, or windy it might be!

Date:

Astronomy

May. 11, 2012 Rise Set
Actual Time 5:56 AM MDT 8:06 PM MDT
Civil Twilight 5:27 AM MDT 8:36 PM MDT
Nautical Twilight 4:51 AM MDT 9:12 PM MDT
Astronomical Twilight 4:12 AM MDT 9:52 PM MDT
Moon 12:48 AM MDT (5/11) 11:31 AM MDT (5/11)
Length of Visible Light 15h 09m
Length of Day
14h 10m
Waning Gibbous, 62% of the Moon is Illuminated
May 11
Waning Gibbous
May 12
Last Quarter
May 20
New
May 28
First Quarter
Jun 4
Full

Hourly Weather History & Observations

Time (MDT) Temp. Windchill Dew Point Humidity Pressure Visibility Wind Dir Wind Speed Gust Speed Precip Events Conditions
12:13 AM 39.2 °F 33.0 °F 21.2 °F 49% 30.37 in - ENE 9.2 mph - N/A   Clear
12:33 AM 39.2 °F 32.5 °F 21.2 °F 49% 30.37 in - ENE 10.4 mph - N/A   Clear
12:53 AM 39.2 °F 32.0 °F 21.2 °F 49% 30.37 in - ENE 11.5 mph - N/A   Clear
1:13 AM 39.2 °F 32.0 °F 21.2 °F 49% 30.37 in - ENE 11.5 mph - N/A   Clear
1:33 AM 39.2 °F 31.6 °F 21.2 °F 49% 30.36 in - ENE 12.7 mph - N/A   Clear
1:53 AM 37.4 °F 29.3 °F 21.2 °F 52% 30.36 in - ENE 12.7 mph - N/A   Clear
2:13 AM 37.4 °F 29.3 °F 21.2 °F 52% 30.36 in - ENE 12.7 mph - N/A   Clear
2:33 AM 37.4 °F 28.9 °F 21.2 °F 52% 30.35 in - ENE 13.8 mph - N/A   Clear
2:53 AM 37.4 °F 28.5 °F 21.2 °F 52% 30.35 in - ENE 15.0 mph - N/A   Clear
3:13 AM 37.4 °F 29.8 °F 21.2 °F 52% 30.35 in - ENE 11.5 mph - N/A   Clear
3:33 AM 35.6 °F 25.5 °F 23.0 °F 60% 30.35 in - East 17.3 mph - N/A   Clear
3:53 AM 35.6 °F 25.9 °F 23.0 °F 60% 30.36 in - ENE 16.1 mph - N/A   Clear
4:13 AM 35.6 °F 25.2 °F 23.0 °F 60% 30.36 in - ENE 18.4 mph - N/A   Clear
4:33 AM 33.8 °F 21.9 °F 23.0 °F 65% 30.35 in - East 21.9 mph - N/A   Mostly Cloudy
4:53 AM 33.8 °F 21.6 °F 24.8 °F 70% 30.35 in - East 23.0 mph - N/A   Scattered Clouds
5:13 AM 33.8 °F 22.5 °F 24.8 °F 70% 30.35 in - ENE 19.6 mph - N/A   Clear
5:33 AM 33.8 °F 22.8 °F 26.6 °F 75% 30.35 in - ENE 18.4 mph - N/A   Clear
5:53 AM 33.8 °F 22.8 °F 26.6 °F 75% 30.36 in - East 18.4 mph - N/A   Clear
6:13 AM 33.8 °F 23.2 °F 26.6 °F 75% 30.37 in - ENE 17.3 mph - N/A   Clear
6:33 AM 33.8 °F 23.5 °F 26.6 °F 75% 30.37 in - ENE 16.1 mph - N/A   Clear
6:53 AM 33.8 °F 23.2 °F 26.6 °F 75% 30.38 in - ENE 17.3 mph - N/A   Clear
7:13 AM 35.6 °F 26.2 °F 26.6 °F 70% 30.38 in - ENE 15.0 mph - N/A   Clear
7:33 AM 35.6 °F 25.9 °F 26.6 °F 70% 30.39 in - ENE 16.1 mph - N/A   Clear
7:53 AM 35.6 °F 25.2 °F 28.4 °F 75% 30.39 in - ENE 18.4 mph - N/A   Clear
8:13 AM 37.4 °F 27.5 °F 28.4 °F 70% 30.40 in - East 18.4 mph - N/A   Clear
8:33 AM 35.6 °F 24.8 °F 28.4 °F 75% 30.40 in - ENE 19.6 mph - N/A   Clear
8:53 AM 37.4 °F 27.2 °F 28.4 °F 70% 30.40 in - ENE 19.6 mph - N/A   Clear
9:13 AM 37.4 °F 26.9 °F 30.2 °F 75% 30.41 in - ENE 20.7 mph - N/A   Mostly Cloudy
9:33 AM 37.4 °F 27.8 °F 28.4 °F 70% 30.41 in - NE 17.3 mph - N/A   Overcast
9:53 AM 37.4 °F 28.5 °F 30.2 °F 75% 30.42 in - ENE 15.0 mph - N/A   Overcast
10:13 AM 37.4 °F 27.8 °F 30.2 °F 75% 30.42 in - East 17.3 mph - N/A   Scattered Clouds
10:33 AM 37.4 °F 27.2 °F 30.2 °F 75% 30.41 in - East 19.6 mph - N/A   Clear
10:53 AM 37.4 °F 27.5 °F 32.0 °F 81% 30.42 in - ENE 18.4 mph 25.3 mph N/A   Clear
11:13 AM 35.6 °F 25.5 °F 32.0 °F 87% 30.42 in - ENE 17.3 mph 26.5 mph N/A   Scattered Clouds
11:33 AM 33.8 °F 22.8 °F 32.0 °F 93% 30.42 in - East 18.4 mph - N/A Thunderstorm Thunderstorm
11:53 AM 33.8 °F 22.8 °F 32.0 °F 93% 30.42 in - ENE 18.4 mph - N/A   Overcast
12:13 PM 32.0 °F 19.8 °F 32.0 °F 100% 30.42 in - ENE 20.7 mph - N/A Thunderstorm Thunderstorm
12:33 PM 32.0 °F 19.5 °F 32.0 °F 100% 30.42 in - ENE 21.9 mph - N/A Thunderstorm Thunderstorm
12:53 PM 32.0 °F 19.8 °F 32.0 °F 100% 30.42 in - ENE 20.7 mph - N/A   Overcast
1:13 PM 32.0 °F 19.8 °F 32.0 °F 100% 30.42 in - ENE 20.7 mph - N/A Thunderstorm Thunderstorm
1:33 PM 32.0 °F 19.2 °F 30.2 °F 93% 30.41 in - ENE 23.0 mph - N/A Thunderstorm Thunderstorm
1:53 PM 30.2 °F 19.3 °F 30.2 °F 100% 30.43 in - ENE 15.0 mph - N/A Thunderstorm Thunderstorm
2:13 PM 30.2 °F - 30.2 °F 100% 30.43 in - North - - N/A Thunderstorm Overcast
2:33 PM 30.2 °F - 30.2 °F 100% 30.45 in - North - - N/A   Overcast
2:53 PM 30.2 °F - 30.2 °F 100% 30.41 in - North - - N/A   Overcast
3:13 PM 28.4 °F - 28.4 °F 100% 30.45 in - North - - N/A   Overcast
3:33 PM 30.2 °F 22.6 °F 28.4 °F 93% 30.45 in - ENE 8.1 mph - N/A   Overcast
3:53 PM 28.4 °F - 28.4 °F 100% 30.43 in - North - - N/A   Overcast
4:13 PM 28.4 °F - 26.6 °F 93% 30.42 in - North - - N/A   Overcast
4:33 PM 28.4 °F 18.0 °F 26.6 °F 93% 30.42 in - ENE 12.7 mph - N/A   Overcast
4:53 PM 28.4 °F - 26.6 °F 93% 30.43 in - North - - N/A   Overcast
5:13 PM 28.4 °F - 26.6 °F 93% 30.42 in - North - - N/A   Overcast
5:33 PM 26.6 °F 15.2 °F 26.6 °F 100% 30.43 in - ENE 13.8 mph - N/A Thunderstorm Thunderstorm
5:53 PM 26.6 °F 15.7 °F 26.6 °F 100% 30.43 in - East 12.7 mph - N/A   Overcast
6:13 PM 26.6 °F 19.1 °F 24.8 °F 93% 30.44 in - East 6.9 mph - N/A   Mostly Cloudy
6:33 PM 26.6 °F - 26.6 °F 100% 30.44 in - North - - N/A Thunderstorm Thunderstorm
6:53 PM 30.2 °F - 28.4 °F 93% 30.44 in - North - - N/A   Overcast
7:13 PM 32.0 °F 24.8 °F 30.2 °F 93% 30.43 in - West 8.1 mph - N/A   Unknown
7:33 PM 30.2 °F - 30.2 °F 100% 30.45 in - Calm Calm - N/A   Unknown
7:53 PM 26.6 °F - 26.6 °F 100% 30.46 in - Calm Calm - N/A   Unknown
8:13 PM 26.6 °F 22.6 °F 24.8 °F 93% 30.46 in - ENE 3.5 mph - N/A Thunderstorm Thunderstorm
8:53 PM 32.0 °F 28.7 °F 30.2 °F 93% 30.48 in - SSW 3.5 mph - N/A   Overcast
9:13 PM 32.0 °F 27.5 °F 30.2 °F 93% 30.49 in - SSW 4.6 mph - N/A Thunderstorm Thunderstorm
9:33 PM 32.0 °F 27.5 °F 30.2 °F 93% 30.50 in - SSE 4.6 mph - N/A   Overcast
9:53 PM 32.0 °F 24.8 °F 30.2 °F 93% 30.51 in - SW 8.1 mph - N/A   Overcast
10:13 PM 32.0 °F 24.2 °F 30.2 °F 93% 30.51 in - SW 9.2 mph - N/A   Overcast
10:33 PM 32.0 °F 22.5 °F 30.2 °F 93% 30.52 in - WSW 12.7 mph - N/A   Overcast
10:53 PM 32.0 °F 25.6 °F 30.2 °F 93% 30.51 in - West 6.9 mph - N/A   Overcast
11:13 PM 32.0 °F 26.4 °F 30.2 °F 93% 30.52 in - West 5.8 mph - N/A   Overcast
11:33 PM 32.0 °F 27.5 °F 30.2 °F 93% 30.53 in - West 4.6 mph - N/A   Overcast
11:53 PM 32.0 °F 28.7 °F 30.2 °F 93% 30.52 in - West 3.5 mph - N/A   Overcast